This is the latest recevied weather packets stored in our database for station/object K7SKM. If no packets are shown the sender has not sent any weather packets the latest 10 day(s).
| Time | Temp. | Humidity | Pressure | Rain* | Wind** | Luminosity | Snow |
|---|---|---|---|---|---|---|---|
| 1787840617 | 16.67° C | 76% | 1021.4 hPa | 0 mm | - | 9 W/m² | - |
| 1787840313 | 16.67° C | 76% | 1021.2 hPa | 0 mm | - | 16 W/m² | - |
| 1787840013 | 16.67° C | 75% | 1021.3 hPa | 0 mm | - | 22 W/m² | - |
| 1787839713 | 16.67° C | 76% | 1021.2 hPa | 0 mm | - | 14 W/m² | - |
| 1787839408 | 16.67° C | 76% | 1021.3 hPa | 0 mm | - | 12 W/m² | - |
| 1787839107 | 16.67° C | 76% | 1021.3 hPa | 0 mm | - | 6 W/m² | - |
| 1787838811 | 16.67° C | 76% | 1021.4 hPa | 0 mm | - | 5 W/m² | - |
| 1787838501 | 16.67° C | 76% | 1021.3 hPa | 0 mm | - | 5 W/m² | - |
| 1787838200 | 16.67° C | 76% | 1021.3 hPa | 0 mm | - | 4 W/m² | - |
| 1787837893 | 16.67° C | 76% | 1021.3 hPa | 0 mm | - | 3 W/m² | - |
| 1787837592 | 16.67° C | 76% | 1021.2 hPa | 0 mm | - | 1 W/m² | - |
| 1787837287 | 16.67° C | 76% | 1021.2 hPa | 0 mm | - | 0 W/m² | - |
| 1787836983 | 16.67° C | 76% | 1021.2 hPa | 0 mm | - | 0 W/m² | - |
| 1787836677 | 16.67° C | 76% | 1021.2 hPa | 0 mm | - | 0 W/m² | - |
| 1787836377 | 16.67° C | 75% | 1021.2 hPa | 0 mm | - | 0 W/m² | - |
| 1787836072 | 16.67° C | 75% | 1021.1 hPa | 0 mm | - | 0 W/m² | - |
| 1787835768 | 16.67° C | 76% | 1021.3 hPa | 0 mm | - | 0 W/m² | - |
| 1787835468 | 16.67° C | 76% | 1021.2 hPa | 0 mm | - | 0 W/m² | - |
| 1787835163 | 16.67° C | 76% | 1021.3 hPa | 0 mm | - | 0 W/m² | - |
| 1787834863 | 16.67° C | 76% | 1021.3 hPa | 0 mm | - | 0 W/m² | - |
| 1787834557 | 16.67° C | 76% | 1021.2 hPa | 0 mm | - | 0 W/m² | - |
| 1787834252 | 16.67° C | 76% | 1021 hPa | 0 mm | - | 0 W/m² | - |
| 1787833948 | 16.67° C | 75% | 1021.1 hPa | 0 mm | - | 0 W/m² | - |
| 1787833643 | 16.67° C | 75% | 1021.1 hPa | 0 mm | - | 0 W/m² | - |
| 1787833339 | 16.67° C | 75% | 1021.2 hPa | 0 mm | - | 0 W/m² | - |
* Rain latest hour (hover to see other rain measurements)
** Current wind speed in m/s (hover to see current wind gust speed)